DW2103 Weather Reports


time (UTC)temp
C
wind
direction
speed
KPH
gust
KPH
rain 1hr
cm
rain 24hr
cm
rain mn
cm
humidity
%
barometer
mb
20260506194550 24 88 4.8 0.0 0.00 0.00 0.00 21 1015.3
20260506193047 24 360 4.8 0.0 0.00 0.00 0.00 21 1015.6
20260506191547 24 78 3.2 0.0 0.00 0.00 0.00 25 1015.7
20260506190044 23 163 1.6 0.0 0.00 0.00 0.00 31 1015.6
20260506184540 23 56 1.6 0.0 0.00 0.00 0.00 35 1015.4
20260506183038 22 69 1.6 0.0 0.00 0.00 0.00 36 1016.0
20260506181537 21 144 1.6 0.0 0.00 0.00 0.00 40 1015.8
20260506180043 21 255 1.6 0.0 0.00 0.00 0.00 42 1016.2
20260506174531 21 117 1.6 0.0 0.00 0.00 0.00 44 1016.6
20260506173026 20 163 1.6 0.0 0.00 0.00 0.00 45 1016.6
20260506171537 19 156 0.0 0.0 0.00 0.00 0.00 45 1016.9
20260506170019 18 156 1.6 0.0 0.00 0.00 0.00 46 1016.8
20260506164516 17 156 1.6 0.0 0.00 0.00 0.00 53 1017.1
20260506163019 16 90 0.0 0.0 0.00 0.00 0.00 56 1017.4
20260506161512 14 126 0.0 0.0 0.00 0.00 0.00 61 1017.7
20260506160007 13 88 1.6 0.0 0.00 0.00 0.00 61 1018.2
20260506154600 13 134 0.0 0.0 0.00 0.00 0.00 63 1018.2
20260506153055 12 26 0.0 0.0 0.00 0.00 0.00 64 1018.5
20260506151552 11 343 0.0 0.0 0.00 0.00 0.00 66 1018.9
20260506150054 10 343 0.0 0.0 0.00 0.00 0.00 73 1018.1
20260506144552 8 344 0.0 0.0 0.00 0.00 0.00 79 1018.7
20260506143048 7 344 0.0 0.0 0.00 0.00 0.00 85 1018.8
20260506141547 6 344 0.0 0.0 0.00 0.00 0.00 86 1019.2
20260506140048 5 344 0.0 0.0 0.00 0.00 0.00 85 1018.5
20260506134611 5 344 0.0 0.0 0.00 0.00 0.00 84 1018.5
20260506133045 5 344 0.0 0.0 0.00 0.00 0.00 83 1018.4
20260506131601 5 344 0.0 0.0 0.00 0.00 0.00 82 1018.3
20260506130044 5 343 0.0 0.0 0.00 0.00 0.00 82 1015.9
20260506124540 5 344 0.0 0.0 0.00 0.00 0.00 82 1015.7
20260506123044 6 344 0.0 0.0 0.00 0.00 0.00 82 1015.4
20260506121538 6 344 0.0 0.0 0.00 0.00 0.00 82 1015.3
20260506120035 6 343 0.0 0.0 0.00 0.00 0.00 81 1014.9
20260506114543 6 344 0.0 0.0 0.00 0.00 0.00 80 1014.5
20260506113037 6 344 0.0 0.0 0.00 0.00 0.00 79 1014.4
20260506111533 6 344 0.0 0.0 0.00 0.00 0.00 80 1014.3
20260506110032 6 344 0.0 0.0 0.00 0.00 0.00 82 1014.4
20260506104531 6 343 0.0 0.0 0.00 0.00 0.00 81 1014.3
20260506103032 6 344 0.0 0.0 0.00 0.00 0.00 80 1014.1
20260506101527 6 314 0.0 0.0 0.00 0.00 0.00 79 1013.9
20260506100032 7 314 0.0 0.0 0.00 0.00 0.00 79 1014.1
20260506094523 7 314 0.0 0.0 0.00 0.00 0.00 77 1013.5
20260506093020 8 314 0.0 0.0 0.00 0.00 0.00 75 1013.4
20260506091519 8 314 0.0 0.0 0.00 0.00 0.00 75 1013.3
20260506090017 8 314 0.0 0.0 0.00 0.00 0.00 75 1013.6
20260506084517 8 299 1.6 0.0 0.00 0.00 0.00 75 1013.6
20260506083017 8 264 0.0 0.0 0.00 0.00 0.00 75 1013.5
20260506081520 8 264 0.0 0.0 0.00 0.00 0.00 74 1013.7
20260506073010 9 273 1.6 0.0 0.00 0.00 0.00 72 1014.1
20260506071502 10 350 0.0 0.0 0.00 0.00 0.00 68 1013.4
20260506070126 11 275 1.6 0.0 0.00 0.00 0.00 67 1013.4
20260506061558 12 255 4.8 0.0 0.00 0.00 0.91 63 1013.1
20260506050104 11 248 0.0 0.0 0.00 0.00 0.91 70 1013.2
20260506044557 11 245 0.0 0.0 0.00 0.00 0.91 67 1013.2
20260506043057 11 245 0.0 0.0 0.00 0.00 0.91 66 1012.7
20260506041602 11 215 0.0 0.0 0.00 0.00 0.91 64 1012.3
20260506040053 12 215 0.0 0.0 0.00 0.00 0.91 63 1012.6
20260506034559 12 199 0.0 0.0 0.00 0.00 0.91 62 1012.0
20260506033052 13 191 0.0 0.0 0.00 0.00 0.91 59 1011.5
20260506031552 13 30 0.0 0.0 0.00 0.00 0.91 58 1011.0
20260506030053 14 30 0.0 0.0 0.00 0.00 0.91 54 1011.1
20260506024559 14 355 0.0 0.0 0.00 0.00 0.91 53 1011.0
20260506023052 14 9 1.6 0.0 0.00 0.00 0.91 54 1010.9
20260506021550 15 244 0.0 0.0 0.00 0.00 0.91 56 1010.2
20260506020105 15 244 0.0 0.0 0.00 0.00 0.91 54 1009.9
20260506014606 16 248 3.2 0.0 0.00 0.00 0.91 49 1009.9
20260506013048 16 248 3.2 0.0 0.00 0.00 0.91 47 1009.6
20260506011610 18 247 3.2 0.0 0.00 0.00 0.91 45 1009.2
20260506010048 21 242 1.6 0.0 0.00 0.00 0.91 38 1008.1
20260506004600 21 170 1.6 0.0 0.00 0.00 0.91 38 1008.2
20260506003045 21 161 1.6 0.0 0.00 0.00 0.91 38 1008.4
20260506001545 21 172 1.6 0.0 0.00 0.00 0.91 37 1008.3
20260506000110 21 250 0.0 0.0 0.00 0.00 0.91 38 1008.2
20260505234547 21 239 1.6 0.0 0.00 0.00 0.91 37 1008.8
20260505233040 21 195 1.6 0.0 0.00 0.00 0.91 39 1008.7
20260505231537 21 150 1.6 0.0 0.00 0.00 0.91 39 1008.9
20260505230054 20 79 1.6 0.0 0.00 0.00 0.91 40 1009.0
20260505224539 20 153 0.0 0.0 0.00 0.00 0.91 43 1009.4
20260505223032 20 142 1.6 0.0 0.00 0.00 0.91 43 1009.6
20260505221529 20 140 1.6 0.0 0.00 0.00 0.91 44 1009.7
20260505220025 18 176 0.0 0.0 0.00 0.00 0.91 46 1010.1
20260505214523 18 180 1.6 0.0 0.00 0.00 0.91 48 1010.6
20260505213024 17 157 1.6 0.0 0.00 0.00 0.91 52 1011.1
20260505211526 17 263 1.6 0.0 0.00 0.00 0.91 53 1011.4
20260505210017 17 201 1.6 0.0 0.00 0.00 0.91 54 1011.2
20260505204513 16 261 1.6 0.0 0.00 0.00 0.91 57 1011.6
20260505203010 15 132 1.6 0.0 0.00 0.00 0.91 59 1011.9
20260505201505 14 177 1.6 0.0 0.00 0.00 0.91 62 1012.6
20260505200003 13 182 1.6 0.0 0.00 0.00 0.91 60 1012.9